Date String (YYYY-MM-DD hh:mm:ss) UTC,Instrument flags,Ambient pressure (hPa),Sample flow (lpm),Bypass flow (lpm),Sample temperature (°C),Ambient temperature (°C),ASC tube jacket temperature (°C),LED temperature (°C),Box temperature (°C),Sample RH (%),Span deviation,Mass concentration (μg/m³),Mass concentration (μg/m³),Mass concentration (μg/m³)
DateTimeUTC,F1_M11,P_M11,Q1_M11,Q2_M11,T1_M11,T2_M11,T3_M11,T4_M11,T5_M11,U1_M11,ZSPAN_M11,X0_M11,X2_M11,X1_M11
2021-09-19 13:00:00,,0824.4,4.99,0.00,29.7,28.9,00.0,38.8,31.5,17.8,0000.0,0002.25,0001.52,0001.19
2021-09-19 13:01:00,,0824.5,5.01,0.00,29.8,28.9,00.0,38.8,31.5,17.9,0000.0,0002.30,0001.54,0001.18
2021-09-19 13:02:00,,0824.4,4.99,0.00,29.8,28.9,00.0,38.8,31.5,18.0,0000.0,0002.19,0001.51,0001.18
2021-09-19 13:03:00,,0824.4,5.00,0.00,29.8,28.9,00.0,38.8,31.5,18.0,0000.0,0002.10,0001.49,0001.19
2021-09-19 13:04:00,,0824.4,5.00,0.00,29.8,28.9,00.0,38.8,31.5,18.1,0000.0,0002.09,0001.48,0001.19
2021-09-19 13:05:00,,0824.4,5.01,0.00,29.8,28.9,00.0,38.8,31.5,18.2,0000.0,0002.98,0001.49,0001.20
2021-09-19 13:06:00,,0824.4,4.99,0.00,29.8,29.0,00.0,38.9,31.5,18.1,0000.0,0003.48,0001.49,0001.21
2021-09-19 13:07:00,,0824.4,4.99,0.00,29.8,29.0,00.0,38.9,31.5,18.0,0000.0,0003.49,0001.49,0001.21
2021-09-19 13:08:00,,0824.4,5.01,0.00,29.8,29.0,00.0,38.9,31.5,18.0,0000.0,0003.36,0001.50,0001.22
2021-09-19 13:09:00,,0824.5,5.00,0.00,29.7,27.9,00.0,38.9,31.2,18.1,0000.0,0003.38,0001.50,0001.22
2021-09-19 13:10:00,,0824.5,4.99,0.00,29.6,26.3,00.0,38.8,30.8,18.3,0000.0,0003.39,0001.50,0001.22
2021-09-19 13:11:00,,0824.5,5.00,0.00,29.5,26.3,00.0,38.8,30.8,18.4,0000.0,0003.39,0001.51,0001.24
2021-09-19 13:12:00,,0824.4,5.00,0.00,29.4,26.6,00.0,38.7,30.9,18.4,0000.0,0003.42,0001.51,0001.25
2021-09-19 13:13:00,,0824.3,5.01,0.00,29.4,27.0,00.0,38.7,30.9,18.6,0000.0,0003.43,0001.51,0001.25
2021-09-19 13:14:00,,0824.3,4.99,0.00,29.4,27.3,00.0,38.7,31.0,18.6,0000.0,0003.42,0001.50,0001.25
2021-09-19 13:15:00,,0824.4,5.00,0.00,29.4,27.6,00.0,38.6,31.0,18.7,0000.0,0003.39,0001.49,0001.25
2021-09-19 13:16:00,,0824.3,5.02,0.00,29.4,27.8,00.0,38.6,31.0,18.5,0000.0,0002.69,0001.52,0001.25
2021-09-19 13:17:00,,0824.3,4.99,0.00,29.4,27.9,00.0,38.6,31.1,18.6,0000.0,0002.24,0001.53,0001.25
2021-09-19 13:18:00,,0824.3,5.01,0.00,29.4,28.1,00.0,38.6,31.1,18.7,0000.0,0002.28,0001.51,0001.25
2021-09-19 13:19:00,,0824.3,4.99,0.00,29.4,28.2,00.0,38.6,31.1,18.7,0000.0,0002.27,0001.49,0001.25
2021-09-19 13:20:00,,0824.3,5.00,0.00,29.4,28.2,00.0,38.6,31.1,18.7,0000.0,0002.34,0001.50,0001.24
2021-09-19 13:21:00,,0824.4,5.01,0.00,29.4,28.3,00.0,38.6,31.1,18.8,0000.0,0002.29,0001.49,0001.24
2021-09-19 13:22:00,,0824.4,4.99,0.00,29.4,28.4,00.0,38.6,31.1,18.8,0000.0,0002.27,0001.49,0001.24
2021-09-19 13:23:00,,0824.4,5.00,0.00,29.4,28.4,00.0,38.6,31.1,18.9,0000.0,0002.26,0001.48,0001.24
2021-09-19 13:24:00,,0824.4,5.01,0.00,29.4,28.5,00.0,38.6,31.1,18.9,0000.0,0002.47,0001.53,0001.26
2021-09-19 13:25:00,,0824.4,4.99,0.00,29.4,28.5,00.0,38.6,31.1,19.0,0000.0,0003.60,0001.58,0001.27
2021-09-19 13:26:00,,0824.4,5.00,0.00,29.4,28.5,00.0,38.6,31.1,19.1,0000.0,0003.81,0001.61,0001.27
2021-09-19 13:27:00,,0824.4,4.99,0.00,29.4,28.6,00.0,38.6,31.2,19.1,0000.0,0003.77,0001.59,0001.27
2021-09-19 13:28:00,,0824.5,5.01,0.00,29.4,28.6,00.0,38.6,31.2,19.1,0000.0,0004.73,0001.60,0001.27
2021-09-19 13:29:00,,0824.5,5.00,0.00,29.5,28.6,00.0,38.6,31.2,19.1,0000.0,0004.92,0001.63,0001.26
2021-09-19 13:30:00,,0824.4,4.99,0.00,29.5,28.6,00.0,38.6,31.2,19.0,0000.0,0004.96,0001.65,0001.26
2021-09-19 13:31:00,,0824.4,5.01,0.00,29.5,28.6,00.0,38.6,31.2,19.1,0000.0,0004.95,0001.65,0001.26
2021-09-19 13:32:00,,0824.6,5.00,0.00,29.5,28.7,00.0,38.6,31.2,19.0,0000.0,0005.01,0001.67,0001.25
2021-09-19 13:33:00,,0824.5,4.99,0.00,29.5,28.7,00.0,38.6,31.3,19.1,0000.0,0004.96,0001.64,0001.24
2021-09-19 13:34:00,,0824.5,5.00,0.00,29.5,28.7,00.0,38.6,31.3,19.0,0000.0,0004.91,0001.63,0001.23
2021-09-19 13:35:00,,0824.6,4.99,0.00,29.5,28.7,00.0,38.6,31.3,19.0,0000.0,0004.69,0001.60,0001.22
2021-09-19 13:36:00,,0824.5,5.00,0.00,29.5,28.7,00.0,38.6,31.3,19.0,0000.0,0003.70,0001.58,0001.21
2021-09-19 13:37:00,,0824.5,5.01,0.00,29.6,28.8,00.0,38.7,31.3,18.9,0000.0,0003.48,0001.54,0001.20
2021-09-19 13:38:00,,0824.4,5.01,0.00,29.6,28.8,00.0,38.7,31.4,19.0,0000.0,0003.46,0001.52,0001.20
2021-09-19 13:39:00,,0824.4,5.00,0.00,29.6,28.8,00.0,38.7,31.3,19.1,0000.0,0002.21,0001.48,0001.20
2021-09-19 13:40:00,,0824.5,5.02,0.00,29.6,28.8,00.0,38.7,31.3,19.2,0000.0,0002.01,0001.48,0001.20
2021-09-19 13:41:00,,0824.4,4.98,0.00,29.6,28.8,00.0,38.7,31.3,19.4,0000.0,0001.96,0001.46,0001.20
2021-09-19 13:42:00,,0824.4,5.01,0.00,29.6,28.8,00.0,38.7,31.3,19.5,0000.0,0001.96,0001.47,0001.20
2021-09-19 13:43:00,,0824.5,4.99,0.00,29.6,28.8,00.0,38.7,31.4,19.5,0000.0,0001.89,0001.45,0001.21
2021-09-19 13:44:00,,0824.4,5.00,0.00,29.6,28.9,00.0,38.7,31.4,19.4,0000.0,0001.97,0001.47,0001.21
2021-09-19 13:45:00,,0824.4,5.00,0.00,29.6,28.9,00.0,38.7,31.4,19.4,0000.0,0001.96,0001.46,0001.20
2021-09-19 13:46:00,,0824.4,5.00,0.00,29.6,28.9,00.0,38.7,31.3,19.2,0000.0,0001.96,0001.45,0001.19
2021-09-19 13:47:00,,0824.4,5.00,0.00,29.6,28.9,00.0,38.7,31.4,19.2,0000.0,0001.85,0001.42,0001.18
2021-09-19 13:48:00,,0824.4,5.01,0.00,29.7,28.9,00.0,38.7,31.4,19.0,0000.0,0001.90,0001.45,0001.18
2021-09-19 13:49:00,,0824.4,5.00,0.00,29.7,28.9,00.0,38.7,31.4,19.1,0000.0,0002.27,0001.48,0001.18
2021-09-19 13:50:00,,0824.4,4.99,0.00,29.7,28.9,00.0,38.7,31.4,19.2,0000.0,0002.43,0001.48,0001.18
2021-09-19 13:51:00,,0824.4,4.98,0.00,29.7,28.9,00.0,38.8,31.4,19.4,0000.0,0002.38,0001.48,0001.18
2021-09-19 13:52:00,,0824.3,5.01,0.00,29.6,27.5,00.0,38.7,31.1,19.6,0000.0,0002.42,0001.50,0001.19
2021-09-19 13:53:00,,0824.3,4.99,0.00,29.5,26.6,00.0,38.7,30.9,19.6,0000.0,0002.47,0001.52,0001.20
2021-09-19 13:54:00,,0824.2,4.99,0.00,29.5,26.8,00.0,38.7,30.9,19.0,0000.0,0002.59,0001.58,0001.22
2021-09-19 13:55:00,,0824.3,5.00,0.00,29.4,27.2,00.0,38.7,31.0,18.7,0000.0,0002.75,0001.65,0001.27
2021-09-19 13:56:00,,0824.3,5.00,0.00,29.4,27.5,00.0,38.6,31.0,18.0,0000.0,0002.87,0001.73,0001.33
2021-09-19 13:57:00,,0824.3,5.00,0.00,29.4,27.7,00.0,38.6,31.0,17.8,0000.0,0002.98,0001.82,0001.42
2021-09-19 13:58:00,,0824.4,5.00,0.00,29.4,27.9,00.0,38.6,31.1,17.3,0000.0,0003.14,0001.93,0001.52
2021-09-19 13:59:00,,0824.3,4.99,0.00,29.5,28.1,00.0,38.6,31.2,17.6,0000.0,0003.25,0002.03,0001.63
